Погода в Бургуй

Россия / Республика Бурятия     50°26′51″N   103°46′47″E
темп.,
°C
ветер,
м/с
пор.,
м/с
влажн.,
%
обл.,
%
осадки,
мм/ч
давл.,
гПа
погр.,
м
13 мая, чт
чт1323:00+3с2380100 0.0 101257
02:00+4св1285100 0.3 1011161
05:00+3всв1292100 0.1 1011324
08:00+2св1295100 0.3 1012365
11:00+2вюв1296100 1.5 1012221
14:00+4всв2483100 2.9 1011762
17:00+5св355499 0.5 10121459
20:00+2св375794 0.6 1017797
14 мая, пт
пт1423:00−3ссз11730 0.0 102111
02:00−5ссз11760 0.0 102312
05:00−6сз11750 0.0 102414
08:00+1з12450 0.0 1023450
11:00+7з22260 0.0 10191370
14:00+11з22170 0.0 10152148
17:00+12з13150 0.0 10132629
20:00+7ююв11260 0.0 101410
15 мая, сб
сб1523:00+2ююв01360 0.0 101810
02:000в00430 0.0 101910
05:00−1сз11503 0.0 101910
08:00+6зсз124012 0.0 1018291
11:00+14зсз12275 0.0 10141180
14:00+17зсз1424100 0.0 10122812
17:00+16с352590 0.0 10112486
20:00+10ссв11525 0.0 101426
16 мая, вс
вс1623:00+5ссз227195 0.0 101817
02:00+4ссз11815 0.0 101911
05:00+2сз11895 0.0 101910
08:00+8з12545 0.0 1016328
11:00+16зсз372997 0.0 10121375
14:00+20зсз462487 0.0 10092791
17:00+21зсз3623100 0.0 10063044
20:00+16ссз234310 0.0 100854
17 мая, пн
пн1723:00+9ссв116641 0.0 101010
02:00+6ююв01792 0.0 101010
05:00+5з117521 0.0 100910
08:00+12зсз28461 0.0 1007477
11:00+19зсз573112 0.0 10052214
14:00+21з4627100 0.0 10032893
17:00+22з492291 0.0 10013304
20:00+17зсз3932100 0.0 1002366